Location: Costa Valle Imagna
(45.8000°N, 9.5000°E)
Time: 09:17:13
(UTC+00:00)

Lacrosse 5 - Pass Details

Date: 17 February 2020
Orbit: 715 x 724 km, 57.0° (Epoch: 21 March)

Event Time Altitude Azimuth Distance (km) Brightness Sun altitude
Exits shadow 04:38:35 27° 311° (NW) 1,375 2.9 -18.7°
Maximum altitude 04:41:26 89° 37° (NE) 726 1.8 -18.2°
Drops below altitude 10° 04:46:31 10° 131° (SE) 2,204 5.1 -17.3°
Sets 04:48:54 0° 131° (SE) 3,123 6.0 -16.9°
